Year,Month,Day,Hour,Minute,Value (Times are PST for temperature in C)
2016,08,25,00,00,25.60
2016,08,25,00,01,25.60
2016,08,25,00,02,25.60
2016,08,25,00,03,25.60
2016,08,25,00,04,25.60
2016,08,25,00,05,25.50
2016,08,25,00,06,25.50
2016,08,25,00,07,25.50
2016,08,25,00,08,25.50
2016,08,25,00,09,25.50
2016,08,25,00,10,25.50
2016,08,25,00,11,25.40
2016,08,25,00,12,25.40
2016,08,25,00,13,25.40
2016,08,25,00,14,25.40
2016,08,25,00,15,25.40
2016,08,25,00,16,25.30
2016,08,25,00,17,25.30
2016,08,25,00,18,25.30
2016,08,25,00,19,25.30
2016,08,25,00,20,25.30
2016,08,25,00,21,25.20
2016,08,25,00,22,25.20
2016,08,25,00,23,25.20
2016,08,25,00,24,25.10
2016,08,25,00,25,25.10
2016,08,25,00,26,25.10
2016,08,25,00,27,25.10
2016,08,25,00,28,25.00
2016,08,25,00,29,24.90
2016,08,25,00,30,24.90
2016,08,25,00,31,24.90
2016,08,25,00,32,24.80
2016,08,25,00,33,24.80
2016,08,25,00,34,24.80
2016,08,25,00,35,24.70
2016,08,25,00,36,24.70
2016,08,25,00,37,24.70
2016,08,25,00,38,24.70
2016,08,25,00,39,24.60
2016,08,25,00,40,24.60
2016,08,25,00,41,24.60
2016,08,25,00,42,24.60
2016,08,25,00,43,24.60
2016,08,25,00,44,24.50
2016,08,25,00,45,24.50
2016,08,25,00,46,24.50
2016,08,25,00,47,24.50
2016,08,25,00,48,24.50
2016,08,25,00,49,24.50
2016,08,25,00,50,24.50
2016,08,25,00,51,24.50
2016,08,25,00,52,24.50
2016,08,25,00,53,24.50
2016,08,25,00,54,24.50
2016,08,25,00,55,24.50
2016,08,25,00,56,24.50
2016,08,25,00,57,24.50
2016,08,25,00,58,24.50
2016,08,25,00,59,24.50
2016,08,25,01,00,24.50
2016,08,25,01,01,24.50
2016,08,25,01,02,24.40
2016,08,25,01,03,24.40
2016,08,25,01,04,24.40
2016,08,25,01,05,24.40
2016,08,25,01,06,24.40
2016,08,25,01,07,24.40
2016,08,25,01,08,24.40
2016,08,25,01,09,24.40
2016,08,25,01,10,24.40
2016,08,25,01,11,24.40
2016,08,25,01,12,24.40
2016,08,25,01,13,24.40
2016,08,25,01,14,24.40
2016,08,25,01,15,24.40
2016,08,25,01,16,24.40
2016,08,25,01,17,24.40
2016,08,25,01,18,24.40
2016,08,25,01,19,24.40
2016,08,25,01,20,24.40
2016,08,25,01,21,24.40
2016,08,25,01,22,24.40
2016,08,25,01,23,24.40
2016,08,25,01,24,24.40
2016,08,25,01,25,24.40
2016,08,25,01,26,24.40
2016,08,25,01,27,24.40
2016,08,25,01,28,24.40
2016,08,25,01,29,24.40
2016,08,25,01,30,24.40
2016,08,25,01,31,24.40
2016,08,25,01,32,24.30
2016,08,25,01,33,24.30
2016,08,25,01,34,24.30
2016,08,25,01,35,24.30
2016,08,25,01,36,24.30
2016,08,25,01,37,24.30
2016,08,25,01,38,24.30
2016,08,25,01,39,24.30
2016,08,25,01,40,24.30
2016,08,25,01,41,24.30
2016,08,25,01,42,24.30
2016,08,25,01,43,24.20
2016,08,25,01,44,24.20
2016,08,25,01,45,24.20
2016,08,25,01,46,24.10
2016,08,25,01,47,24.10
2016,08,25,01,48,24.00
2016,08,25,01,49,24.00
2016,08,25,01,50,23.90
2016,08,25,01,51,23.80
2016,08,25,01,52,23.70
2016,08,25,01,53,23.60
2016,08,25,01,54,23.50
2016,08,25,01,55,23.30
2016,08,25,01,56,23.20
2016,08,25,01,57,23.10
2016,08,25,01,58,22.90
2016,08,25,01,59,22.80
2016,08,25,02,00,22.70
2016,08,25,02,01,22.60
2016,08,25,02,02,22.50
2016,08,25,02,03,22.40
2016,08,25,02,04,22.30
2016,08,25,02,05,22.20
2016,08,25,02,06,22.10
2016,08,25,02,07,22.10
2016,08,25,02,08,22.00
2016,08,25,02,09,22.00
2016,08,25,02,10,21.90
2016,08,25,02,11,21.90
2016,08,25,02,12,21.90
2016,08,25,02,13,21.80
2016,08,25,02,14,21.80
2016,08,25,02,15,21.80
2016,08,25,02,16,21.80
2016,08,25,02,17,21.80
2016,08,25,02,18,21.80
2016,08,25,02,19,21.80
2016,08,25,02,20,21.80
2016,08,25,02,21,21.80
2016,08,25,02,22,21.80
2016,08,25,02,23,21.80
2016,08,25,02,24,21.80
2016,08,25,02,25,21.80
2016,08,25,02,26,21.80
2016,08,25,02,27,21.80
2016,08,25,02,28,21.80
2016,08,25,02,29,21.80
2016,08,25,02,30,21.80
2016,08,25,02,31,21.80
2016,08,25,02,32,21.80
2016,08,25,02,33,21.70
2016,08,25,02,34,21.70
2016,08,25,02,35,21.70
2016,08,25,02,36,21.70
2016,08,25,02,37,21.60
2016,08,25,02,38,21.60
2016,08,25,02,39,21.60
2016,08,25,02,40,21.60
2016,08,25,02,41,21.60
2016,08,25,02,42,21.60
2016,08,25,02,43,21.60
2016,08,25,02,44,21.60
2016,08,25,02,45,21.50
2016,08,25,02,46,21.50
2016,08,25,02,47,21.40
2016,08,25,02,48,21.40
2016,08,25,02,49,21.40
2016,08,25,02,50,21.30
2016,08,25,02,51,21.30
2016,08,25,02,52,21.30
2016,08,25,02,53,21.20
2016,08,25,02,54,21.20
2016,08,25,02,55,21.20
2016,08,25,02,56,21.10
2016,08,25,02,57,21.10
2016,08,25,02,58,21.10
2016,08,25,02,59,21.00
2016,08,25,03,00,21.00
2016,08,25,03,01,21.00
2016,08,25,03,02,21.00
2016,08,25,03,03,21.00
2016,08,25,03,04,20.90
2016,08,25,03,05,20.90
2016,08,25,03,06,20.90
2016,08,25,03,07,20.90
2016,08,25,03,08,20.90
2016,08,25,03,09,20.90
2016,08,25,03,10,20.90
2016,08,25,03,11,20.90
2016,08,25,03,12,20.90
2016,08,25,03,13,20.90
2016,08,25,03,14,20.90
2016,08,25,03,15,20.90
2016,08,25,03,16,20.90
2016,08,25,03,17,20.90
2016,08,25,03,18,20.90
2016,08,25,03,19,20.90
2016,08,25,03,20,20.90
2016,08,25,03,21,20.90
2016,08,25,03,22,20.90
2016,08,25,03,23,20.80
2016,08,25,03,24,20.80
2016,08,25,03,25,20.80
2016,08,25,03,26,20.80
2016,08,25,03,27,20.80
2016,08,25,03,28,20.70
2016,08,25,03,29,20.70
2016,08,25,03,30,20.70
2016,08,25,03,31,20.70
2016,08,25,03,32,20.60
2016,08,25,03,33,20.60
2016,08,25,03,34,20.60
2016,08,25,03,35,20.60
2016,08,25,03,36,20.60
2016,08,25,03,37,20.50
2016,08,25,03,38,20.50
2016,08,25,03,39,20.50
2016,08,25,03,40,20.40
2016,08,25,03,41,20.40
2016,08,25,03,42,20.40
2016,08,25,03,43,20.40
2016,08,25,03,44,20.40
2016,08,25,03,45,20.40
2016,08,25,03,46,20.40
2016,08,25,03,47,20.40
2016,08,25,03,48,20.40
2016,08,25,03,49,20.40
2016,08,25,03,50,20.40
2016,08,25,03,51,20.40
2016,08,25,03,52,20.40
2016,08,25,03,53,20.40
2016,08,25,03,54,20.40
2016,08,25,03,55,20.40
2016,08,25,03,56,20.40
2016,08,25,03,57,20.40
2016,08,25,03,58,20.40
2016,08,25,03,59,20.40
2016,08,25,04,00,20.50
2016,08,25,04,01,20.50
2016,08,25,04,02,20.60
2016,08,25,04,03,20.60
2016,08,25,04,04,20.70
2016,08,25,04,05,20.70
2016,08,25,04,06,20.80
2016,08,25,04,07,20.80
2016,08,25,04,08,20.80
2016,08,25,04,09,20.90
2016,08,25,04,10,20.90
2016,08,25,04,11,21.00
2016,08,25,04,12,21.10
2016,08,25,04,13,21.10
2016,08,25,04,14,21.20
2016,08,25,04,15,21.20
2016,08,25,04,16,21.30
2016,08,25,04,17,21.30
2016,08,25,04,18,21.40
2016,08,25,04,19,21.40
2016,08,25,04,20,21.40
2016,08,25,04,21,21.50
2016,08,25,04,22,21.50
2016,08,25,04,23,21.60
2016,08,25,04,24,21.60
2016,08,25,04,25,21.60
2016,08,25,04,26,21.60
2016,08,25,04,27,21.60
2016,08,25,04,28,21.70
2016,08,25,04,29,21.70
2016,08,25,04,30,21.70
2016,08,25,04,31,21.70
2016,08,25,04,32,21.70
2016,08,25,04,33,21.70
2016,08,25,04,34,21.70
2016,08,25,04,35,21.80
2016,08,25,04,36,21.80
2016,08,25,04,37,21.80
2016,08,25,04,38,21.90
2016,08,25,04,39,21.90
2016,08,25,04,40,22.00
2016,08,25,04,41,22.00
2016,08,25,04,42,22.10
2016,08,25,04,43,22.10
2016,08,25,04,44,22.10
2016,08,25,04,45,22.10
2016,08,25,04,46,22.10
2016,08,25,04,47,22.10
2016,08,25,04,48,22.10
2016,08,25,04,49,22.10
2016,08,25,04,50,22.10
2016,08,25,04,51,22.10
2016,08,25,04,52,22.10
2016,08,25,04,53,22.10
2016,08,25,04,54,22.10
2016,08,25,04,55,22.10
2016,08,25,04,56,22.20
2016,08,25,04,57,22.20
2016,08,25,04,58,22.30
2016,08,25,04,59,22.30
2016,08,25,05,00,22.30
2016,08,25,05,01,22.30
2016,08,25,05,02,22.30
2016,08,25,05,03,22.30
2016,08,25,05,04,22.30
2016,08,25,05,05,22.30
2016,08,25,05,06,22.30
2016,08,25,05,07,22.30
2016,08,25,05,08,22.30
2016,08,25,05,09,22.20
2016,08,25,05,10,22.20
2016,08,25,05,11,22.20
2016,08,25,05,12,22.20
2016,08,25,05,13,22.20
2016,08,25,05,14,22.20
2016,08,25,05,15,22.20
2016,08,25,05,16,22.30
2016,08,25,05,17,22.30
2016,08,25,05,18,22.30
2016,08,25,05,19,22.40
2016,08,25,05,20,22.40
2016,08,25,05,21,22.40
2016,08,25,05,22,22.50
2016,08,25,05,23,22.50
2016,08,25,05,24,22.60
2016,08,25,05,25,22.60
2016,08,25,05,26,22.60
2016,08,25,05,27,22.60
2016,08,25,05,28,22.60
2016,08,25,05,29,22.60
2016,08,25,05,30,22.60
2016,08,25,05,31,22.60
2016,08,25,05,32,22.60
2016,08,25,05,33,22.60
2016,08,25,05,34,22.60
2016,08,25,05,35,22.50
2016,08,25,05,36,22.50
2016,08,25,05,37,22.40
2016,08,25,05,38,22.40
2016,08,25,05,39,22.40
2016,08,25,05,40,22.40
2016,08,25,05,41,22.30
2016,08,25,05,42,22.30
2016,08,25,05,43,22.30
2016,08,25,05,44,22.30
2016,08,25,05,45,22.30
2016,08,25,05,46,22.20
2016,08,25,05,47,22.20
2016,08,25,05,48,22.20
2016,08,25,05,49,22.20
2016,08,25,05,50,22.20
2016,08,25,05,51,22.20
2016,08,25,05,52,22.20
2016,08,25,05,53,22.10
2016,08,25,05,54,22.10
2016,08,25,05,55,22.10
2016,08,25,05,56,22.10
2016,08,25,05,57,22.00
2016,08,25,05,58,22.00
2016,08,25,05,59,22.00
2016,08,25,06,00,21.90
2016,08,25,06,01,21.90
2016,08,25,06,02,21.90
2016,08,25,06,03,21.90
2016,08,25,06,04,21.90
2016,08,25,06,05,21.90
2016,08,25,06,06,21.90
2016,08,25,06,07,21.90
2016,08,25,06,08,21.90
2016,08,25,06,09,21.90
2016,08,25,06,10,21.90
2016,08,25,06,11,21.90
2016,08,25,06,12,21.90
2016,08,25,06,13,21.90
2016,08,25,06,14,21.90
2016,08,25,06,15,21.90
2016,08,25,06,16,21.90
2016,08,25,06,17,21.90
2016,08,25,06,18,21.80
2016,08,25,06,19,21.80
2016,08,25,06,20,21.80
2016,08,25,06,21,21.80
2016,08,25,06,22,21.80
2016,08,25,06,23,21.80
2016,08,25,06,24,21.80
2016,08,25,06,25,21.80
2016,08,25,06,26,21.90
2016,08,25,06,27,21.90
2016,08,25,06,28,21.90
2016,08,25,06,29,21.90
2016,08,25,06,30,21.90
2016,08,25,06,31,21.90
2016,08,25,06,32,21.90
2016,08,25,06,33,21.90
2016,08,25,06,34,21.90
2016,08,25,06,35,21.90
2016,08,25,06,36,21.90
2016,08,25,06,37,21.90
2016,08,25,06,38,21.90
2016,08,25,06,39,21.90
2016,08,25,06,40,21.90
2016,08,25,06,41,21.90
2016,08,25,06,42,21.90
2016,08,25,06,43,21.90
2016,08,25,06,44,21.90
2016,08,25,06,45,21.90
2016,08,25,06,46,21.90
2016,08,25,06,47,21.80
2016,08,25,06,48,21.80
2016,08,25,06,49,21.80
2016,08,25,06,50,21.70
2016,08,25,06,51,21.70
2016,08,25,06,52,21.70
2016,08,25,06,53,21.70
2016,08,25,06,54,21.60
2016,08,25,06,55,21.60
2016,08,25,06,56,21.60
2016,08,25,06,57,21.50
2016,08,25,06,58,21.50
2016,08,25,06,59,21.40
2016,08,25,07,00,21.40
2016,08,25,07,01,21.40
2016,08,25,07,02,21.30
2016,08,25,07,03,21.30
2016,08,25,07,04,21.30
2016,08,25,07,05,21.30
2016,08,25,07,06,21.30
2016,08,25,07,07,21.30
2016,08,25,07,08,21.30
2016,08,25,07,09,21.30
2016,08,25,07,10,21.30
2016,08,25,07,11,21.30
2016,08,25,07,12,21.40
2016,08,25,07,13,21.40
2016,08,25,07,14,21.40
2016,08,25,07,15,21.40
2016,08,25,07,16,21.40
2016,08,25,07,17,21.40
2016,08,25,07,18,21.30
2016,08,25,07,19,21.30
2016,08,25,07,20,21.30
2016,08,25,07,21,21.30
2016,08,25,07,22,21.30
2016,08,25,07,23,21.30
2016,08,25,07,24,21.30
2016,08,25,07,25,21.30
2016,08,25,07,26,21.30
2016,08,25,07,27,21.30
2016,08,25,07,28,21.30
2016,08,25,07,29,21.30
2016,08,25,07,30,21.30
2016,08,25,07,31,21.30
2016,08,25,07,32,21.30
2016,08,25,07,33,21.30
2016,08,25,07,34,21.30
2016,08,25,07,35,21.20
2016,08,25,07,36,21.20
2016,08,25,07,37,21.20
2016,08,25,07,38,21.20
2016,08,25,07,39,21.20
2016,08,25,07,40,21.20
2016,08,25,07,41,21.20
2016,08,25,07,42,21.20
2016,08,25,07,43,21.10
2016,08,25,07,44,21.10
2016,08,25,07,45,21.10
2016,08,25,07,46,21.10
2016,08,25,07,47,21.10
2016,08,25,07,48,21.10
2016,08,25,07,49,21.10
2016,08,25,07,50,21.10
2016,08,25,07,51,21.20
2016,08,25,07,52,21.20
2016,08,25,07,53,21.20
2016,08,25,07,54,21.20
2016,08,25,07,55,21.20
2016,08,25,07,56,21.20
2016,08,25,07,57,21.20
2016,08,25,07,58,21.20
2016,08,25,07,59,21.30
2016,08,25,08,00,21.30
2016,08,25,08,01,21.30
2016,08,25,08,02,21.30
2016,08,25,08,03,21.30
2016,08,25,08,04,21.30
2016,08,25,08,05,21.20
2016,08,25,08,06,21.20
2016,08,25,08,07,21.20
2016,08,25,08,08,21.20
2016,08,25,08,09,21.20
2016,08,25,08,10,21.20
2016,08,25,08,11,21.20
2016,08,25,08,12,21.20
2016,08,25,08,13,21.20
2016,08,25,08,14,21.20
2016,08,25,08,15,21.30
2016,08,25,08,16,21.30
2016,08,25,08,17,21.30
2016,08,25,08,18,21.40
2016,08,25,08,19,21.40
2016,08,25,08,20,21.50
2016,08,25,08,21,21.60
2016,08,25,08,22,21.60
2016,08,25,08,23,21.70
2016,08,25,08,24,21.80
2016,08,25,08,25,21.90
2016,08,25,08,26,22.00
2016,08,25,08,27,22.10
2016,08,25,08,28,22.20
2016,08,25,08,29,22.20
2016,08,25,08,30,22.30
2016,08,25,08,31,22.40
2016,08,25,08,32,22.50
2016,08,25,08,33,22.50
2016,08,25,08,34,22.60
2016,08,25,08,35,22.70
2016,08,25,08,36,22.80
2016,08,25,08,37,22.80
2016,08,25,08,38,22.80
2016,08,25,08,39,22.90
2016,08,25,08,40,22.90
2016,08,25,08,41,23.00
2016,08,25,08,42,23.10
2016,08,25,08,43,23.10
2016,08,25,08,44,23.10
2016,08,25,08,45,23.10
2016,08,25,08,46,23.20
2016,08,25,08,47,23.20
2016,08,25,08,48,23.20
2016,08,25,08,49,23.30
2016,08,25,08,50,23.30
2016,08,25,08,51,23.30
2016,08,25,08,52,23.40
2016,08,25,08,53,23.40
2016,08,25,08,54,23.40
2016,08,25,08,55,23.50
2016,08,25,08,56,23.50
2016,08,25,08,57,23.60
2016,08,25,08,58,23.60
2016,08,25,08,59,23.60
2016,08,25,09,00,23.60
2016,08,25,09,01,23.60
2016,08,25,09,02,23.60
2016,08,25,09,03,23.60
2016,08,25,09,04,23.60
2016,08,25,09,05,23.60
2016,08,25,09,06,23.70
2016,08,25,09,07,23.70
2016,08,25,09,08,23.70
2016,08,25,09,09,23.70
2016,08,25,09,10,23.70
2016,08,25,09,11,23.70
2016,08,25,09,12,23.80
2016,08,25,09,13,23.80
2016,08,25,09,14,23.80
2016,08,25,09,15,23.80
2016,08,25,09,16,23.80
2016,08,25,09,17,23.80
2016,08,25,09,18,23.80
2016,08,25,09,19,23.80
2016,08,25,09,20,23.80
2016,08,25,09,21,23.70
2016,08,25,09,22,23.70
2016,08,25,09,23,23.60
2016,08,25,09,24,23.60
2016,08,25,09,25,23.70
2016,08,25,09,26,23.70
2016,08,25,09,27,23.70
2016,08,25,09,28,23.80
2016,08,25,09,29,23.80
2016,08,25,09,30,23.80
2016,08,25,09,31,23.80
2016,08,25,09,32,23.90
2016,08,25,09,33,23.90
2016,08,25,09,34,23.90
2016,08,25,09,35,23.90
2016,08,25,09,36,23.90
2016,08,25,09,37,24.00
2016,08,25,09,38,24.00
2016,08,25,09,39,24.00
2016,08,25,09,40,24.00
2016,08,25,09,41,24.10
2016,08,25,09,42,24.10
2016,08,25,09,43,24.10
2016,08,25,09,44,24.10
2016,08,25,09,45,24.20
2016,08,25,09,46,24.20
2016,08,25,09,47,24.20
2016,08,25,09,48,24.30
2016,08,25,09,49,24.30
2016,08,25,09,50,24.30
2016,08,25,09,51,24.40
2016,08,25,09,52,24.40
2016,08,25,09,53,24.50
2016,08,25,09,54,24.60
2016,08,25,09,55,24.60
2016,08,25,09,56,24.60
2016,08,25,09,57,24.70
2016,08,25,09,58,24.70
2016,08,25,09,59,24.70
2016,08,25,10,00,24.70
2016,08,25,10,01,24.70
2016,08,25,10,02,24.70
2016,08,25,10,03,24.70
2016,08,25,10,04,24.80
2016,08,25,10,05,24.80
2016,08,25,10,06,24.90
2016,08,25,10,07,24.90
2016,08,25,10,08,25.00
2016,08,25,10,09,25.00
2016,08,25,10,10,25.10
2016,08,25,10,11,25.20
2016,08,25,10,12,25.20
2016,08,25,10,13,25.30
2016,08,25,10,14,25.30
2016,08,25,10,15,25.30
2016,08,25,10,16,25.30
2016,08,25,10,17,25.30
2016,08,25,10,18,25.30
2016,08,25,10,19,25.30
2016,08,25,10,20,25.30
2016,08,25,10,21,25.30
2016,08,25,10,22,25.40
2016,08,25,10,23,25.40
2016,08,25,10,24,25.40
2016,08,25,10,25,25.40
2016,08,25,10,26,25.50
2016,08,25,10,27,25.50
2016,08,25,10,28,25.50
2016,08,25,10,29,25.50
2016,08,25,10,30,25.50
2016,08,25,10,31,25.50
2016,08,25,10,32,25.60
2016,08,25,10,33,25.50
2016,08,25,10,34,25.50
2016,08,25,10,35,25.50
2016,08,25,10,36,25.60
2016,08,25,10,37,25.60
2016,08,25,10,38,25.60
2016,08,25,10,39,25.70
2016,08,25,10,40,25.70
2016,08,25,10,41,25.70
2016,08,25,10,42,25.70
2016,08,25,10,43,25.70
2016,08,25,10,44,25.70
2016,08,25,10,45,25.60
2016,08,25,10,46,25.60
2016,08,25,10,47,25.60
2016,08,25,10,48,25.60
2016,08,25,10,49,25.60
2016,08,25,10,50,25.60
2016,08,25,10,51,25.60
2016,08,25,10,52,25.70
2016,08,25,10,53,25.80
2016,08,25,10,54,25.80
2016,08,25,10,55,25.80
2016,08,25,10,56,25.90
2016,08,25,10,57,25.90
2016,08,25,10,58,26.00
2016,08,25,10,59,26.00
2016,08,25,11,00,26.00
2016,08,25,11,01,25.90
2016,08,25,11,02,25.90
2016,08,25,11,03,26.00
2016,08,25,11,04,26.00
2016,08,25,11,05,26.00
2016,08,25,11,06,26.00
2016,08,25,11,07,26.10
2016,08,25,11,08,26.10
2016,08,25,11,09,26.10
2016,08,25,11,10,26.20
2016,08,25,11,11,26.20
2016,08,25,11,12,26.30
2016,08,25,11,13,26.30
2016,08,25,11,14,26.40
2016,08,25,11,15,26.50
2016,08,25,11,16,26.60
2016,08,25,11,17,26.70
2016,08,25,11,18,26.70
2016,08,25,11,19,26.80
2016,08,25,11,20,26.80
2016,08,25,11,21,26.90
2016,08,25,11,22,26.90
2016,08,25,11,23,27.00
2016,08,25,11,24,27.00
2016,08,25,11,25,27.00
2016,08,25,11,26,27.10
2016,08,25,11,27,27.10
2016,08,25,11,28,27.10
2016,08,25,11,29,27.10
2016,08,25,11,30,27.10
2016,08,25,11,31,27.10
2016,08,25,11,32,27.00
2016,08,25,11,33,26.90
2016,08,25,11,34,26.90
2016,08,25,11,35,26.90
2016,08,25,11,36,26.90
2016,08,25,11,37,26.90
2016,08,25,11,38,27.00
2016,08,25,11,39,27.00
2016,08,25,11,40,27.00
2016,08,25,11,41,27.10
2016,08,25,11,42,27.10
2016,08,25,11,43,27.10
2016,08,25,11,44,27.10
2016,08,25,11,45,27.20
2016,08,25,11,46,27.20
2016,08,25,11,47,27.30
2016,08,25,11,48,27.40
2016,08,25,11,49,27.40
2016,08,25,11,50,27.50
2016,08,25,11,51,27.50
2016,08,25,11,52,27.60
2016,08,25,11,53,27.60
2016,08,25,11,54,27.60
2016,08,25,11,55,27.70
2016,08,25,11,56,27.70
2016,08,25,11,57,27.80
2016,08,25,11,58,27.80
2016,08,25,11,59,27.80
2016,08,25,12,00,27.80
2016,08,25,12,01,27.80
2016,08,25,12,02,27.80
2016,08,25,12,03,27.90
2016,08,25,12,04,28.00
2016,08,25,12,05,28.00
2016,08,25,12,06,28.00
2016,08,25,12,07,28.10
2016,08,25,12,08,28.00
2016,08,25,12,09,28.10
2016,08,25,12,10,28.00
2016,08,25,12,11,28.00
2016,08,25,12,12,28.00
2016,08,25,12,13,28.00
2016,08,25,12,14,28.10
2016,08,25,12,15,28.10
2016,08,25,12,16,28.10
2016,08,25,12,17,28.20
2016,08,25,12,18,28.20
2016,08,25,12,19,28.10
2016,08,25,12,20,28.10
2016,08,25,12,21,28.00
2016,08,25,12,22,28.00
2016,08,25,12,23,28.00
2016,08,25,12,24,28.10
2016,08,25,12,25,28.10
2016,08,25,12,26,28.10
2016,08,25,12,27,28.10
2016,08,25,12,28,28.20
2016,08,25,12,29,28.20
2016,08,25,12,30,28.30
2016,08,25,12,31,28.40
2016,08,25,12,32,28.40
2016,08,25,12,33,28.40
2016,08,25,12,34,28.40
2016,08,25,12,35,28.40
2016,08,25,12,36,28.40
2016,08,25,12,37,28.40
2016,08,25,12,38,28.40
2016,08,25,12,39,28.40
2016,08,25,12,40,28.40
2016,08,25,12,41,28.50
2016,08,25,12,42,28.50
2016,08,25,12,43,28.60
2016,08,25,12,44,28.60
2016,08,25,12,45,28.70
2016,08,25,12,46,28.70
2016,08,25,12,47,28.80
2016,08,25,12,48,28.80
2016,08,25,12,49,28.80
2016,08,25,12,50,28.80
2016,08,25,12,51,28.80
2016,08,25,12,52,28.70
2016,08,25,12,53,28.70
2016,08,25,12,54,28.60
2016,08,25,12,55,28.50
2016,08,25,12,56,28.40
2016,08,25,12,57,28.40
2016,08,25,12,58,28.40
2016,08,25,12,59,28.30
2016,08,25,13,00,28.30
2016,08,25,13,01,28.30
2016,08,25,13,02,28.30
2016,08,25,13,03,28.30
2016,08,25,13,04,28.30
2016,08,25,13,05,28.40
2016,08,25,13,06,28.40
2016,08,25,13,07,28.40
2016,08,25,13,08,28.40
2016,08,25,13,09,28.50
2016,08,25,13,10,28.30
2016,08,25,13,11,28.20
2016,08,25,13,12,28.20
2016,08,25,13,13,28.20
2016,08,25,13,14,28.20
2016,08,25,13,15,28.20
2016,08,25,13,16,28.30
2016,08,25,13,17,28.30
2016,08,25,13,18,28.30
2016,08,25,13,19,28.30
2016,08,25,13,20,28.30
2016,08,25,13,21,28.30
2016,08,25,13,22,28.30
2016,08,25,13,23,28.30
2016,08,25,13,24,28.30
2016,08,25,13,25,28.30
2016,08,25,13,26,28.30
2016,08,25,13,27,28.30
2016,08,25,13,28,28.30
2016,08,25,13,29,28.30
2016,08,25,13,30,28.40
2016,08,25,13,31,28.40
2016,08,25,13,32,28.50
2016,08,25,13,33,28.60
2016,08,25,13,34,28.60
2016,08,25,13,35,28.70
2016,08,25,13,36,28.80
2016,08,25,13,37,28.90
2016,08,25,13,38,28.90
2016,08,25,13,39,28.90
2016,08,25,13,40,28.90
2016,08,25,13,41,28.80
2016,08,25,13,42,28.80
2016,08,25,13,43,28.70
2016,08,25,13,44,28.70
2016,08,25,13,45,28.80
2016,08,25,13,46,28.80
2016,08,25,13,47,28.90
2016,08,25,13,48,28.90
2016,08,25,13,49,29.00
2016,08,25,13,50,29.00
2016,08,25,13,51,29.10
2016,08,25,13,52,29.10
2016,08,25,13,53,29.20
2016,08,25,13,54,29.30
2016,08,25,13,55,29.30
2016,08,25,13,56,29.40
2016,08,25,13,57,29.50
2016,08,25,13,58,29.60
2016,08,25,13,59,29.60
2016,08,25,14,00,29.70
2016,08,25,14,01,29.80
2016,08,25,14,02,29.80
2016,08,25,14,03,29.80
2016,08,25,14,04,29.80
2016,08,25,14,05,29.80
2016,08,25,14,06,29.90
2016,08,25,14,07,29.90
2016,08,25,14,08,29.90
2016,08,25,14,09,29.90
2016,08,25,14,10,30.00
2016,08,25,14,11,30.00
2016,08,25,14,12,30.00
2016,08,25,14,13,30.00
2016,08,25,14,14,30.00
2016,08,25,14,15,30.00
2016,08,25,14,16,30.10
2016,08,25,14,17,30.10
2016,08,25,14,18,30.10
2016,08,25,14,19,29.90
2016,08,25,14,20,29.90
2016,08,25,14,21,29.80
2016,08,25,14,22,29.80
2016,08,25,14,23,29.70
2016,08,25,14,24,29.70
2016,08,25,14,25,29.70
2016,08,25,14,26,29.80
2016,08,25,14,27,29.80
2016,08,25,14,28,29.90
2016,08,25,14,29,29.90
2016,08,25,14,30,30.00
2016,08,25,14,31,30.00
2016,08,25,14,32,30.00
2016,08,25,14,33,30.00
2016,08,25,14,34,30.00
2016,08,25,14,35,30.00
2016,08,25,14,36,30.00
2016,08,25,14,37,30.00
2016,08,25,14,38,30.00
2016,08,25,14,39,30.00
2016,08,25,14,40,30.00
2016,08,25,14,41,30.00
2016,08,25,14,42,30.10
2016,08,25,14,43,30.10
2016,08,25,14,44,30.10
2016,08,25,14,45,30.10
2016,08,25,14,46,30.00
2016,08,25,14,47,30.00
2016,08,25,14,48,30.10
2016,08,25,14,49,30.10
2016,08,25,14,50,30.10
2016,08,25,14,51,30.10
2016,08,25,14,52,30.20
2016,08,25,14,53,30.20
2016,08,25,14,54,30.20
2016,08,25,14,55,30.20
2016,08,25,14,56,30.20
2016,08,25,14,57,30.20
2016,08,25,14,58,30.30
2016,08,25,14,59,30.30
2016,08,25,15,00,30.30
2016,08,25,15,01,30.40
2016,08,25,15,02,30.50
2016,08,25,15,03,30.50
2016,08,25,15,04,30.60
2016,08,25,15,05,30.70
2016,08,25,15,06,30.70
2016,08,25,15,07,30.80
2016,08,25,15,08,30.90
2016,08,25,15,09,30.90
2016,08,25,15,10,31.00
2016,08,25,15,11,31.00
2016,08,25,15,12,31.00
2016,08,25,15,13,31.00
2016,08,25,15,14,30.90
2016,08,25,15,15,30.90
2016,08,25,15,16,30.90
2016,08,25,15,17,30.90
2016,08,25,15,18,30.80
2016,08,25,15,19,30.80
2016,08,25,15,20,30.80
2016,08,25,15,21,30.80
2016,08,25,15,22,30.90
2016,08,25,15,23,31.00
2016,08,25,15,24,31.00
2016,08,25,15,25,31.00
2016,08,25,15,26,31.10
2016,08,25,15,27,31.10
2016,08,25,15,28,31.10
2016,08,25,15,29,31.20
2016,08,25,15,30,31.20
2016,08,25,15,31,31.30
2016,08,25,15,32,31.30
2016,08,25,15,33,31.30
2016,08,25,15,34,31.30
2016,08,25,15,35,31.30
2016,08,25,15,36,31.20
2016,08,25,15,37,31.10
2016,08,25,15,38,31.00
2016,08,25,15,39,30.90
2016,08,25,15,40,30.90
2016,08,25,15,41,30.80
2016,08,25,15,42,30.70
2016,08,25,15,43,30.60
2016,08,25,15,44,30.60
2016,08,25,15,45,30.60
2016,08,25,15,46,30.70
2016,08,25,15,47,30.70
2016,08,25,15,48,30.80
2016,08,25,15,49,30.80
2016,08,25,15,50,30.90
2016,08,25,15,51,30.90
2016,08,25,15,52,30.90
2016,08,25,15,53,30.90
2016,08,25,15,54,31.00
2016,08,25,15,55,31.00
2016,08,25,15,56,31.10
2016,08,25,15,57,31.10
2016,08,25,15,58,31.10
2016,08,25,15,59,31.10
2016,08,25,16,00,31.20
2016,08,25,16,01,31.20
2016,08,25,16,02,31.20
2016,08,25,16,03,31.20
2016,08,25,16,04,31.20
2016,08,25,16,05,31.20
2016,08,25,16,06,31.20
2016,08,25,16,07,31.10
2016,08,25,16,08,31.10
2016,08,25,16,09,31.10
2016,08,25,16,10,31.10
2016,08,25,16,11,31.10
2016,08,25,16,12,31.00
2016,08,25,16,13,31.00
2016,08,25,16,14,31.10
2016,08,25,16,15,31.10
2016,08,25,16,16,31.10
2016,08,25,16,17,31.10
2016,08,25,16,18,31.10
2016,08,25,16,19,31.10
2016,08,25,16,20,31.00
2016,08,25,16,21,31.00
2016,08,25,16,22,31.00
2016,08,25,16,23,31.10
2016,08,25,16,24,31.10
2016,08,25,16,25,31.00
2016,08,25,16,26,31.00
2016,08,25,16,27,30.90
2016,08,25,16,28,30.90
2016,08,25,16,29,30.80
2016,08,25,16,30,30.80
2016,08,25,16,31,30.80
2016,08,25,16,32,30.80
2016,08,25,16,33,30.80
2016,08,25,16,34,30.90
2016,08,25,16,35,30.90
2016,08,25,16,36,30.90
2016,08,25,16,37,30.90
2016,08,25,16,38,30.90
2016,08,25,16,39,30.90
2016,08,25,16,40,30.90
2016,08,25,16,41,30.90
2016,08,25,16,42,30.90
2016,08,25,16,43,31.00
2016,08,25,16,44,31.00
2016,08,25,16,45,31.00
2016,08,25,16,46,31.00
2016,08,25,16,47,31.10
2016,08,25,16,48,31.10
2016,08,25,16,49,31.10
2016,08,25,16,50,31.10
2016,08,25,16,51,31.00
2016,08,25,16,52,31.00
2016,08,25,16,53,31.10
2016,08,25,16,54,31.10
2016,08,25,16,55,31.10
2016,08,25,16,56,31.10
2016,08,25,16,57,31.10
2016,08,25,16,58,31.10
2016,08,25,16,59,31.20
2016,08,25,17,00,31.20
2016,08,25,17,01,31.20
2016,08,25,17,02,31.30
2016,08,25,17,03,31.30
2016,08,25,17,04,31.40
2016,08,25,17,05,31.40
2016,08,25,17,06,31.40
2016,08,25,17,07,31.50
2016,08,25,17,08,31.50
2016,08,25,17,09,31.50
2016,08,25,17,10,31.50
2016,08,25,17,11,31.50
2016,08,25,17,12,31.50
2016,08,25,17,13,31.50
2016,08,25,17,14,31.60
2016,08,25,17,15,31.60
2016,08,25,17,16,31.60
2016,08,25,17,17,31.60
2016,08,25,17,18,31.60
2016,08,25,17,19,31.60